{"data":{"norad_id":57102,"epoch":"2026-05-24T21:02:34.841760Z","epoch_age_seconds":75834,"freshness":"FRESH","line1":"1 57102U 23090B   26144.87679215 -.00000271  00000+0 -40855-6 0  9990","line2":"2 57102  43.0038 211.3406 0001312 270.4270  89.6431 15.26740674161989","mean_motion":15.26740674,"eccentricity":0.0001312,"inclination_deg":43.0038,"raan_deg":211.3406,"arg_perigee_deg":270.427,"mean_anomaly_deg":89.6431,"bstar":-4.0855e-7,"rev_number":16198,"period_min":94.318571878173,"perigee_km":484.66297383515,"apogee_km":486.46400884408,"semimajor_km":6863.7004913396,"source":"CELESTRAK","updated_at":"2026-05-25T13:38:18.219120Z"}}